Location: *
(49.9853°N, 3.5569°E)
Time: 05:30:52
(UTC+00:00)

USA 234 - Pass Details

Date: 22 September 2019
Orbit: 1103 x 1105 km, 123.0° (Epoch: 06 October)

Event Time Altitude Azimuth Distance (km) Brightness Sun altitude
Exits shadow 19:02:36 - 62° (ENE) 3,453 5.5 -13.2°
Reaches altitude 10° 19:03:53 10° 60° (ENE) 2,967 5.1 -13.4°
Maximum altitude 19:10:16 59° 343° (NNW) 1,267 3.8 -14.4°
Drops below altitude 10° 19:16:39 10° 267° (W) 2,963 6.6 -15.3°
Sets 19:19:10 0° 263° (W) 3,920 7.3 -15.7°
